This demonstration page uses our WeatherBlox Daily Observations layout. Learn more.

Hourly Observations for March 26, 2020

Temp ( °F °C ) Dew Point ( °F °C ) Humidity (%) Winds ( mph kmh ) Pressure ( in mb ) Visibility ( mi km ) Precip ( " mm )
12:15 am 00:15 Cloudy 41 5 41 5 100 100 Calm 30.11 1020 10 16.0934 0 0
12:35 am 00:35 Cloudy 41 5 41 5 100 100 Calm 30.11 1020 7 11.26538 0 0
12:55 am 00:55 Cloudy 41 5 41 5 100 100 Calm 30.12 1020 7 11.26538 0 0
1:15 am 01:15 Cloudy 41 5 41 5 100 100 Calm 30.11 1020 7 11.26538 0 0
1:35 am 01:35 Cloudy 41 5 41 5 100 100 Calm 30.11 1020 7 11.26538 0 0
1:55 am 01:55 Cloudy 41 5 41 5 100 100 Calm 30.11 1020 7 11.26538 0 0
2:15 am 02:15 Cloudy 39 4 39 4 100 100 Calm 30.12 1020 4 6.43736 0 0
2:35 am 02:35 Cloudy 37 3 37 3 100 100 Calm 30.11 1020 2.5 4.02335 0 0
2:55 am 02:55 Cloudy 37 3 37 3 100 100 Calm 30.11 1020 2.5 4.02335 0 0
3:15 am 03:15 Cloudy 37 3 37 3 100 100 Calm 30.11 1020 3 4.82802 0 0
3:35 am 03:35 Cloudy 37 3 37 3 100 100 W 5 7 30.1 1019 3 4.82802 0 0
3:55 am 03:55 Cloudy 37 3 37 3 100 100 Calm 30.1 1019 3 4.82802 0 0
4:15 am 04:15 Cloudy 37 3 37 3 100 100 W 3 6 30.1 1019 5 8.0467 0 0
4:35 am 04:35 Cloudy 39 4 39 4 100 100 Calm 30.1 1019 5 8.0467 0 0
4:55 am 04:55 Cloudy 39 4 39 4 100 100 Calm 30.11 1019 5 8.0467 0 0
5:15 am 05:15 Cloudy 39 4 39 4 100 100 WNW 3 6 30.11 1019 5 8.0467 0 0
5:35 am 05:35 Cloudy 39 4 39 4 100 100 Calm 30.12 1020 7 11.26538 0 0
5:55 am 05:55 Cloudy 39 4 39 4 100 100 Calm 30.12 1020 7 11.26538 0 0
6:15 am 06:15 Cloudy 39 4 39 4 100 100 Calm 30.12 1020 7 11.26538 0 0
6:35 am 06:35 Cloudy 39 4 39 4 100 100 Calm 30.11 1019 10 16.0934 0 0
6:55 am 06:55 Partly Cloudy 37 3 37 3 100 100 Calm 30.11 1020 7 11.26538 0 0
7:15 am 07:15 Sunny 37 3 37 3 100 100 Calm 30.1 1019 3 4.82802 0 0
7:35 am 07:35 Mostly Cloudy 36 2 36 2 100 100 W 3 6 30.11 1020 1.25 2.011675 0 0
7:55 am 07:55 Cloudy 36 2 36 2 100 100 Calm 30.12 1020 N/A 0 0
8:15 am 08:15 Cloudy 36 2 36 2 100 100 W 3 6 30.12 1020 N/A 0 0
8:35 am 08:35 Partly Cloudy 37 3 37 3 100 100 SW 3 6 30.12 1020 2.5 4.02335 0 0
8:55 am 08:55 Sunny 37 3 37 3 100 100 SW 3 6 30.13 1020 5 8.0467 0 0
9:15 am 09:15 Sunny 41 5 41 5 100 100 Calm 30.12 1020 10 16.0934 0 0
9:35 am 09:35 Sunny 43 6 41 5 93 93 SW 5 7 30.12 1020 10 16.0934 0 0
9:55 am 09:55 Sunny 43 6 37 3 81 81 Calm 30.12 1020 10 16.0934 0 0
10:15 am 10:15 Partly Cloudy 45 7 39 4 81 81 SSW 6 9 30.12 1020 10 16.0934 0 0
10:35 am 10:35 Cloudy 46 8 41 5 82 82 SSW 7 11 30.13 1020 10 16.0934 0 0
10:55 am 10:55 Cloudy 46 8 41 5 82 82 WSW 6 9 30.13 1020 10 16.0934 0 0
11:15 am 11:15 Cloudy 46 8 41 5 82 82 SSW 7 11 30.12 1020 10 16.0934 0 0
11:35 am 11:35 Cloudy 46 8 41 5 82 82 SW 6 9 30.11 1020 10 16.0934 0 0
11:55 am 11:55 Cloudy 48 9 41 5 76 76 SSW 10 17 30.11 1020 10 16.0934 0 0
12:15 pm 12:15 Cloudy 50 10 41 5 71 71 SSW 9 15 30.09 1019 10 16.0934 0 0
12:35 pm 12:35 Mostly Cloudy 52 11 43 6 72 72 SW 10 17 30.08 1019 10 16.0934 0 0
12:55 pm 12:55 Mostly Cloudy 52 11 43 6 72 72 S 9 15 30.07 1018 10 16.0934 0 0
1:15 pm 13:15 Mostly Cloudy 52 11 43 6 72 72 S 14 22 30.05 1018 10 16.0934 0 0
1:35 pm 13:35 Partly Cloudy 52 11 43 6 72 72 SSW 9 15 30.05 1018 10 16.0934 0 0
1:55 pm 13:55 Partly Cloudy 54 12 43 6 67 67 SSW 10 17 30.02 1017 10 16.0934 0 0
2:15 pm 14:15 Sunny 54 12 43 6 67 67 S 10 17 30.01 1016 10 16.0934 0 0
2:35 pm 14:35 Sunny 55 13 43 6 63 63 S 15 24 29.99 1016 10 16.0934 0 0
2:55 pm 14:55 Sunny 55 13 43 6 63 63 SSW 14 22 29.98 1015 10 16.0934 0 0
3:15 pm 15:15 Sunny 55 13 43 6 63 63 SSE 12 19 29.96 1015 10 16.0934 0 0
3:35 pm 15:35 Sunny 57 14 43 6 59 59 SSW 13 20 29.95 1014 10 16.0934 0 0
3:55 pm 15:55 Sunny 59 15 43 6 55 55 S 15 24 29.95 1014 10 16.0934 0 0
4:15 pm 16:15 Sunny 59 15 43 6 55 55 S 10 17 29.93 1013 10 16.0934 0 0
4:35 pm 16:35 Sunny 59 15 43 6 55 55 S 13 20 29.92 1013 10 16.0934 0 0
4:55 pm 16:55 Sunny 59 15 43 6 55 55 S 8 13 29.91 1013 10 16.0934 0 0
5:15 pm 17:15 Sunny 59 15 45 7 59 59 S 15 24 29.9 1012 10 16.0934 0 0
5:35 pm 17:35 Sunny 61 16 45 7 55 55 SSW 9 15 29.9 1012 10 16.0934 0 0
5:55 pm 17:55 Sunny 59 15 45 7 59 59 SSW 12 19 29.9 1012 10 16.0934 0 0
6:15 pm 18:15 Sunny 59 15 45 7 59 59 S 13 20 29.9 1012 10 16.0934 0 0
6:35 pm 18:35 Sunny 59 15 45 7 59 59 SSW 9 15 29.9 1012 10 16.0934 0 0
6:55 pm 18:55 Sunny 57 14 45 7 63 63 SSW 12 19 29.89 1012 10 16.0934 0 0
7:15 pm 19:15 Sunny 57 14 45 7 63 63 S 8 13 29.89 1012 10 16.0934 0 0
7:35 pm 19:35 Clear 55 13 45 7 67 67 S 10 17 29.88 1012 10 16.0934 0 0
7:55 pm 19:55 Clear 55 13 45 7 67 67 S 9 15 29.87 1012 10 16.0934 0 0
8:15 pm 20:15 Clear 55 13 45 7 67 67 S 10 17 29.88 1012 10 16.0934 0 0
8:35 pm 20:35 Clear 54 12 45 7 72 72 S 9 15 29.88 1012 10 16.0934 0 0
8:55 pm 20:55 Clear 54 12 45 7 72 72 SSW 8 13 29.88 1012 10 16.0934 0 0
9:15 pm 21:15 Clear 54 12 45 7 72 72 SSW 8 13 29.89 1012 10 16.0934 0 0
9:35 pm 21:35 Clear 54 12 45 7 72 72 S 12 19 29.87 1012 10 16.0934 0 0
9:55 pm 21:55 Clear 52 11 45 7 77 77 S 7 11 29.86 1011 10 16.0934 0 0
10:15 pm 22:15 Clear 52 11 45 7 77 77 S 10 17 29.85 1011 10 16.0934 0 0
10:35 pm 22:35 Clear 52 11 45 7 77 77 S 9 15 29.83 1010 10 16.0934 0 0
10:55 pm 22:55 Clear 52 11 45 7 77 77 S 8 13 29.83 1010 10 16.0934 0 0
11:15 pm 23:15 Partly Cloudy 52 11 45 7 77 77 SSW 6 9 29.85 1011 10 16.0934 0 0
11:35 pm 23:35 Cloudy 52 11 45 7 77 77 S 7 11 29.84 1011 10 16.0934 0 0
11:55 pm 23:55 Cloudy 52 11 45 7 77 77 SSW 5 7 29.85 1011 10 16.0934 0 0

Powered by AerisWeather